Regional Weather Roundup
Issued by NWS Cleveland, OH

Home | Current Version | Previous Version | Graphics & Text | Print | Product List | Glossary On
Versions: 1 2 3 4 5 6 7 8 9 10 11 12 13 14 15 16 17 18 19 20 21 22 23 24 25 26 27 28 29 30 31 32 33 34 35 36 37 38 39 40 41 42 43 44 45 46 47 48 49 50
000
ASUS41 KCLE 261800
RWRCLE
OHIO REGIONAL WEATHER ROUNDUP
NATIONAL WEATHER SERVICE WILMINGTON, OH
200 PM EDT TUE SEP 26 2017

NOTE: "FAIR" INDICATES FEW OR NO CLOUDS BELOW 12,000 FEET WITH NO
SIGNIFICANT WEATHER AND/OR OBSTRUCTIONS TO VISIBILITY.

OHZ001>008-015>018-024>027-034-035-043-044-261900-
   NORTHWEST OHIO

CITY           SKY/WX    TMP DP  RH WIND       PRES   REMARKS
DEFIANCE       FAIR      87  62  43 VRB5      29.99F
FINDLAY        FAIR      88  61  40 VRB3      29.99F
TOLEDO EXPRESS FAIR      90  66  45 VRB6G17   29.98F HX  92
TOLEDO EXEC    FAIR      89  61  38 SW12      29.99F
LIMA           FAIR      87  62  43 VRB3      30.01F
$$

OHZ009>014-019>023-028>033-038-089-261900-
   NORTHEAST OHIO

CITY           SKY/WX    TMP DP  RH WIND       PRES   REMARKS
CLE-HOPKINS    FAIR     101  58  24 VRB3      30.01F HX 100
CLE-LAKEFRONT  FAIR      81  67  62 N6        29.99F
CUY CO. ARPT   MOSUNNY   90  61  37 NW9       30.02F
LORAIN-ELYRIA  FAIR      88  56  33 W6        30.00F
ASHTABULA      FAIR      87  59  38 S8        30.02F
AKRON-CANTON   FAIR      89  60  37 MISG      30.03F
WOOSTER        NOT AVBL
MANSFIELD      FAIR      87  59  38 SW8       30.03F
YOUNGSTOWN     FAIR      87  64  46 VRB6      30.02F
$$

OHZ042-051>053-060>062-070>072-077>081-261900-
  SOUTHWEST OHIO

CITY           SKY/WX    TMP DP  RH WIND       PRES   REMARKS
CINC-COVINGTON FAIR      87  64  46 W8        30.02F
CINC-LUNKEN    FAIR      87  63  44 S6        30.01F
HAMILTON       FAIR      88  64  44 VRB3      30.02F
DAYTON         NOT AVBL
WRIGHT-PAT AFB FAIR      87  59  39 SE5       30.02F
DAYTON GENERAL FAIR      85  61  44 W5        30.02F
WILMINGTON     FAIR      87  63  44 S5        30.02F
$$

OHZ036-037-039>041-045>050-054>059-063>069-073>076-082>088-261900-
  CENTRAL AND SOUTHEAST OHIO

CITY           SKY/WX    TMP DP  RH WIND       PRES   REMARKS
COLUMBUS       FAIR      89  61  38 VRB3      30.01F
OSU AIRPORT    FAIR      87  63  44 N5        30.02F
BOLTON FIELD   NOT AVBL
RICKENBACK AFB NOT AVBL
NEWARK         FAIR      87  61  41 SW6       30.01F
MARION         FAIR      88  56  33 S5        30.02F
LANCASTER      FAIR      86  63  45 VRB6      30.02F
ZANESVILLE     FAIR      88  60  38 E3        30.02F
NEW PHILLY     FAIR      91  62  37 NW6       30.02F HX  91
$$



USA.gov is the U.S. government's official web portal to all federal, state and local government web resources and services.